sat.trackr.live / text

‹ back to catalog

STARLINK-3975

NORAD 52620 · 2022-052Y

PAYLOAD ACTIVE UNKNOWN

§ Identity

Operator
Country
US
Launch date
2022-05-14
Launch site
AFETR
Launch vehicle
Mass (kg)
RCS (m²)

Purposes: comms

External: N2YO · Heavens-Above · Gunter

§ Orbital elements

Epoch: 2026-09-20T04:00:03.000096Z

Period
93.79 min
Inclination
53.1607°
Eccentricity
0.0001034
Mean motion
15.35407089 rev/d
Perigee alt
459.0 km
Apogee alt
460.4 km
Semi-major
6,837.8 km
B*
-2.3651e-5
RAAN
117.6049°
Arg perigee
78.6630°
Mean anomaly
98.6385°
Rev number
586

§ Raw data

STARLINK-39751 52620U 22052Y   26263.16670139 -.00001205  00000+0 -23651-4 0  99982 52620  53.1607 117.6049 0001034  78.6630  98.6385 15.35407089  5865

JSON: /api/v1/satellites/52620 · /tle

For live sub-satellite position, see the globe view (requires WebGL).

§ Visibility from observer

Set your observer location to see the next 7 days of passes ≥ 10°. The values pass through the URL so the page stays shareable.

No JS? Fill the form by hand. The geolocation button needs JavaScript.